Time,TemperatureF,DewpointF,PressureIn,WindDirection,WindDirectionDegrees,WindSpeedMPH,WindSpeedGustMPH,Humidity,HourlyPrecipIn,Conditions,Clouds,dailyrainin,SoftwareType,DateUTC
2013-06-30 00:14:00,63.9,62.0,29.79,NNW,347,1.0,3.0,92,0.00,,,0.00,weatherlink.com 1.10,2013-06-30 05:14:00,
2013-06-30 00:29:00,63.8,62.0,29.79,NNW,336,1.0,4.0,93,0.00,,,0.00,weatherlink.com 1.10,2013-06-30 05:29:00,
2013-06-30 00:44:00,64.0,62.0,29.79,North,3,3.0,6.0,93,0.00,,,0.00,weatherlink.com 1.10,2013-06-30 05:44:00,
2013-06-30 00:59:00,63.6,62.0,29.80,NNE,21,1.0,4.0,93,0.00,,,0.00,weatherlink.com 1.10,2013-06-30 05:59:00,
2013-06-30 01:14:00,63.3,62.0,29.80,NNE,18,1.0,5.0,94,0.00,,,0.00,weatherlink.com 1.10,2013-06-30 06:14:00,
2013-06-30 01:29:00,63.1,61.0,29.80,NNE,19,4.0,5.0,94,0.00,,,0.00,weatherlink.com 1.10,2013-06-30 06:29:00,
2013-06-30 01:44:00,63.1,61.0,29.80,NNW,344,1.0,3.0,94,0.00,,,0.00,weatherlink.com 1.10,2013-06-30 06:44:00,
2013-06-30 01:59:00,62.9,61.0,29.80,NNE,24,3.0,4.0,93,0.00,,,0.00,weatherlink.com 1.10,2013-06-30 06:59:00,
2013-06-30 02:14:00,63.2,61.0,29.80,NE,50,0.0,4.0,93,0.00,,,0.00,weatherlink.com 1.10,2013-06-30 07:14:00,
2013-06-30 02:29:00,63.4,61.0,29.80,NNW,338,1.0,6.0,92,0.00,,,0.00,weatherlink.com 1.10,2013-06-30 07:29:00,
2013-06-30 02:44:00,63.5,61.0,29.81,East,94,1.0,6.0,92,0.00,,,0.00,weatherlink.com 1.10,2013-06-30 07:44:00,
2013-06-30 02:59:00,63.7,61.0,29.80,North,10,2.0,3.0,92,0.00,,,0.00,weatherlink.com 1.10,2013-06-30 07:59:00,
2013-06-30 03:14:00,63.6,61.0,29.81,NE,52,0.0,6.0,92,0.00,,,0.00,weatherlink.com 1.10,2013-06-30 08:14:00,
2013-06-30 03:29:00,63.6,61.0,29.81,East,95,0.0,5.0,92,0.00,,,0.00,weatherlink.com 1.10,2013-06-30 08:29:00,
2013-06-30 03:44:00,63.7,61.0,29.81,North,359,0.0,6.0,91,0.00,,,0.00,weatherlink.com 1.10,2013-06-30 08:44:00,
2013-06-30 03:59:00,63.5,61.0,29.81,NE,53,1.0,5.0,91,0.00,,,0.00,weatherlink.com 1.10,2013-06-30 08:59:00,
2013-06-30 04:14:00,63.3,60.0,29.82,NW,319,1.0,7.0,90,0.00,,,0.00,weatherlink.com 1.10,2013-06-30 09:14:00,
2013-06-30 04:29:00,62.8,60.0,29.82,ESE,110,0.0,4.0,90,0.00,,,0.00,weatherlink.com 1.10,2013-06-30 09:29:00,
2013-06-30 04:44:00,62.5,60.0,29.83,ENE,72,1.0,5.0,90,0.00,,,0.00,weatherlink.com 1.10,2013-06-30 09:44:00,
2013-06-30 04:59:00,62.4,60.0,29.84,NE,56,4.0,6.0,90,0.00,,,0.00,weatherlink.com 1.10,2013-06-30 09:59:00,
2013-06-30 05:14:00,62.5,59.0,29.84,NNE,27,2.0,6.0,89,0.00,,,0.00,weatherlink.com 1.10,2013-06-30 10:14:00,
2013-06-30 05:30:00,62.7,59.0,29.84,ENE,73,2.0,7.0,87,0.00,,,0.00,weatherlink.com 1.10,2013-06-30 10:30:00,
2013-06-30 05:45:00,62.5,58.0,29.85,NE,53,2.0,8.0,85,0.00,,,0.00,weatherlink.com 1.10,2013-06-30 10:45:00,
2013-06-30 06:00:00,62.5,58.0,29.86,ENE,65,1.0,9.0,84,0.00,,,0.00,weatherlink.com 1.10,2013-06-30 11:00:00,
2013-06-30 06:15:00,62.3,57.0,29.86,NNE,25,1.0,7.0,83,0.00,,,0.00,weatherlink.com 1.10,2013-06-30 11:15:00,
2013-06-30 06:30:00,62.2,57.0,29.87,North,357,2.0,6.0,83,0.00,,,0.00,weatherlink.com 1.10,2013-06-30 11:30:00,
2013-06-30 06:45:00,62.3,57.0,29.87,NNE,29,1.0,4.0,82,0.00,,,0.00,weatherlink.com 1.10,2013-06-30 11:45:00,
2013-06-30 07:00:00,62.4,57.0,29.87,NE,34,2.0,6.0,82,0.00,,,0.00,weatherlink.com 1.10,2013-06-30 12:00:00,
2013-06-30 07:15:00,62.7,57.0,29.88,NE,37,0.0,6.0,82,0.00,,,0.00,weatherlink.com 1.10,2013-06-30 12:15:00,
2013-06-30 07:30:00,63.6,57.0,29.88,NE,46,4.0,8.0,78,0.00,,,0.00,weatherlink.com 1.10,2013-06-30 12:30:00,
2013-06-30 07:45:00,65.1,58.0,29.88,NE,35,1.0,8.0,77,0.00,,,0.00,weatherlink.com 1.10,2013-06-30 12:45:00,
2013-06-30 08:00:00,66.0,58.0,29.88,ENE,60,4.0,7.0,75,0.00,,,0.00,weatherlink.com 1.10,2013-06-30 13:00:00,
2013-06-30 08:15:00,67.3,58.0,29.89,NNE,15,3.0,5.0,71,0.00,,,0.00,weatherlink.com 1.10,2013-06-30 13:15:00,
2013-06-30 08:30:00,67.8,58.0,29.89,NNW,346,2.0,8.0,72,0.00,,,0.00,weatherlink.com 1.10,2013-06-30 13:30:00,
2013-06-30 08:45:00,68.9,59.0,29.90,North,352,2.0,7.0,71,0.00,,,0.00,weatherlink.com 1.10,2013-06-30 13:45:00,
2013-06-30 09:00:00,69.1,59.0,29.90,NNE,26,5.0,7.0,70,0.00,,,0.00,weatherlink.com 1.10,2013-06-30 14:00:00,
2013-06-30 09:15:00,68.8,58.0,29.90,NNE,23,1.0,9.0,69,0.00,,,0.00,weatherlink.com 1.10,2013-06-30 14:15:00,
2013-06-30 09:30:00,67.1,57.0,29.91,NNE,28,2.0,7.0,71,0.00,,,0.00,weatherlink.com 1.10,2013-06-30 14:30:00,
2013-06-30 09:45:00,67.1,57.0,29.91,NE,48,2.0,9.0,71,0.00,,,0.00,weatherlink.com 1.10,2013-06-30 14:45:00,
2013-06-30 10:00:00,68.5,57.0,29.91,ENE,59,3.0,7.0,68,0.00,,,0.00,weatherlink.com 1.10,2013-06-30 15:00:00,
2013-06-30 10:15:00,68.7,59.0,29.91,NNW,348,2.0,6.0,70,0.00,,,0.00,weatherlink.com 1.10,2013-06-30 15:15:00,
2013-06-30 10:30:00,69.5,59.0,29.91,ENE,64,2.0,7.0,70,0.00,,,0.00,weatherlink.com 1.10,2013-06-30 15:30:00,
2013-06-30 10:45:00,69.9,59.0,29.91,WNW,295,2.0,7.0,69,0.00,,,0.00,weatherlink.com 1.10,2013-06-30 15:45:00,
2013-06-30 11:00:00,70.9,61.0,29.91,NNW,347,0.0,5.0,71,0.00,,,0.00,weatherlink.com 1.10,2013-06-30 16:00:00,
2013-06-30 11:15:00,71.5,61.0,29.91,NE,44,6.0,7.0,69,0.00,,,0.00,weatherlink.com 1.10,2013-06-30 16:15:00,
2013-06-30 11:30:00,72.3,61.0,29.91,NNE,32,3.0,8.0,68,0.00,,,0.00,weatherlink.com 1.10,2013-06-30 16:30:00,
2013-06-30 11:45:00,73.1,62.0,29.91,NNW,338,1.0,7.0,68,0.00,,,0.00,weatherlink.com 1.10,2013-06-30 16:45:00,
2013-06-30 12:00:00,74.1,62.0,29.91,NE,47,4.0,7.0,66,0.00,,,0.00,weatherlink.com 1.10,2013-06-30 17:00:00,
2013-06-30 12:15:00,74.9,63.0,29.91,ENE,73,2.0,6.0,66,0.00,,,0.00,weatherlink.com 1.10,2013-06-30 17:15:00,
2013-06-30 12:30:00,75.4,61.0,29.91,ENE,60,2.0,12.0,62,0.00,,,0.00,weatherlink.com 1.10,2013-06-30 17:30:00,
2013-06-30 12:45:00,76.3,62.0,29.91,NE,46,2.0,7.0,61,0.00,,,0.00,weatherlink.com 1.10,2013-06-30 17:45:00,
2013-06-30 13:01:00,77.5,62.0,29.91,NE,55,1.0,11.0,60,0.00,,,0.00,weatherlink.com 1.10,2013-06-30 18:01:00,
2013-06-30 13:16:00,77.7,61.0,29.91,NNW,340,2.0,9.0,56,0.00,,,0.00,weatherlink.com 1.10,2013-06-30 18:16:00,
2013-06-30 13:31:00,77.7,63.0,29.91,NNW,335,4.0,13.0,60,0.00,,,0.00,weatherlink.com 1.10,2013-06-30 18:31:00,
2013-06-30 13:46:00,78.3,62.0,29.90,NNW,343,3.0,12.0,58,0.00,,,0.00,weatherlink.com 1.10,2013-06-30 18:46:00,
2013-06-30 14:01:00,77.9,62.0,29.90,NE,39,6.0,12.0,58,0.00,,,0.00,weatherlink.com 1.10,2013-06-30 19:01:00,
2013-06-30 14:16:00,78.3,63.0,29.90,NE,48,11.0,11.0,60,0.00,,,0.00,weatherlink.com 1.10,2013-06-30 19:16:00,
2013-06-30 14:31:00,77.9,61.0,29.90,ENE,63,11.0,13.0,56,0.00,,,0.00,weatherlink.com 1.10,2013-06-30 19:31:00,
2013-06-30 14:46:00,78.5,62.0,29.90,NE,54,4.0,12.0,57,0.00,,,0.00,weatherlink.com 1.10,2013-06-30 19:46:00,
2013-06-30 15:01:00,78.8,61.0,29.91,NE,43,8.0,16.0,54,0.00,,,0.00,weatherlink.com 1.10,2013-06-30 20:01:00,
2013-06-30 15:16:00,78.7,61.0,29.91,ENE,59,6.0,11.0,55,0.00,,,0.00,weatherlink.com 1.10,2013-06-30 20:16:00,
2013-06-30 15:31:00,79.2,62.0,29.91,North,11,2.0,13.0,55,0.00,,,0.00,weatherlink.com 1.10,2013-06-30 20:31:00,
2013-06-30 15:46:00,79.3,62.0,29.91,NE,56,8.0,12.0,55,0.00,,,0.00,weatherlink.com 1.10,2013-06-30 20:46:00,
2013-06-30 16:01:00,78.9,60.0,29.91,ENE,65,8.0,14.0,53,0.00,,,0.00,weatherlink.com 1.10,2013-06-30 21:01:00,
2013-06-30 16:16:00,78.9,61.0,29.92,NE,37,6.0,10.0,54,0.00,,,0.00,weatherlink.com 1.10,2013-06-30 21:16:00,
2013-06-30 16:31:00,79.4,61.0,29.92,NE,41,10.0,11.0,53,0.00,,,0.00,weatherlink.com 1.10,2013-06-30 21:31:00,
2013-06-30 16:46:00,77.9,59.0,29.92,NE,55,8.0,13.0,53,0.00,,,0.00,weatherlink.com 1.10,2013-06-30 21:46:00,
2013-06-30 17:01:00,79.0,59.0,29.92,NNE,19,5.0,10.0,51,0.00,,,0.00,weatherlink.com 1.10,2013-06-30 22:01:00,
2013-06-30 17:16:00,78.8,60.0,29.92,NE,34,2.0,13.0,52,0.00,,,0.00,weatherlink.com 1.10,2013-06-30 22:16:00,
2013-06-30 17:31:00,78.9,60.0,29.91,NE,41,3.0,11.0,52,0.00,,,0.00,weatherlink.com 1.10,2013-06-30 22:31:00,
2013-06-30 17:46:00,78.8,60.0,29.92,NNE,16,7.0,9.0,52,0.00,,,0.00,weatherlink.com 1.10,2013-06-30 22:46:00,
2013-06-30 18:01:00,78.5,59.0,29.92,NNE,23,3.0,10.0,51,0.00,,,0.00,weatherlink.com 1.10,2013-06-30 23:01:00,
2013-06-30 18:16:00,78.2,59.0,29.93,NNE,20,4.0,12.0,52,0.00,,,0.00,weatherlink.com 1.10,2013-06-30 23:16:00,
2013-06-30 18:31:00,78.0,59.0,29.93,NE,51,6.0,10.0,53,0.00,,,0.00,weatherlink.com 1.10,2013-06-30 23:31:00,
2013-06-30 18:46:00,77.5,59.0,29.93,NNE,22,3.0,12.0,54,0.00,,,0.00,weatherlink.com 1.10,2013-06-30 23:46:00,
2013-06-30 19:01:00,77.0,59.0,29.94,NNE,18,2.0,9.0,54,0.00,,,0.00,weatherlink.com 1.10,2013-07-01 00:01:00,
2013-06-30 19:16:00,76.4,59.0,29.94,NE,36,8.0,11.0,55,0.00,,,0.00,weatherlink.com 1.10,2013-07-01 00:16:00,
2013-06-30 19:31:00,75.9,59.0,29.94,NNE,20,3.0,9.0,57,0.00,,,0.00,weatherlink.com 1.10,2013-07-01 00:31:00,
2013-06-30 19:46:00,75.4,59.0,29.94,NE,50,5.0,7.0,57,0.00,,,0.00,weatherlink.com 1.10,2013-07-01 00:46:00,
2013-06-30 20:01:00,74.2,59.0,29.95,NE,39,5.0,6.0,60,0.00,,,0.00,weatherlink.com 1.10,2013-07-01 01:01:00,
2013-06-30 20:16:00,73.0,59.0,29.95,NE,51,1.0,8.0,61,0.00,,,0.00,weatherlink.com 1.10,2013-07-01 01:16:00,
2013-06-30 20:31:00,71.9,58.0,29.95,NE,42,1.0,5.0,61,0.00,,,0.00,weatherlink.com 1.10,2013-07-01 01:31:00,
2013-06-30 20:46:00,70.9,58.0,29.95,NE,49,1.0,5.0,63,0.00,,,0.00,weatherlink.com 1.10,2013-07-01 01:46:00,
2013-06-30 21:01:00,70.0,57.0,29.96,NNE,31,1.0,6.0,64,0.00,,,0.00,weatherlink.com 1.10,2013-07-01 02:01:00,
2013-06-30 21:16:00,69.0,57.0,29.96,NE,53,2.0,4.0,66,0.00,,,0.00,weatherlink.com 1.10,2013-07-01 02:16:00,
2013-06-30 21:31:00,68.7,57.0,29.97,NE,51,2.0,8.0,66,0.00,,,0.00,weatherlink.com 1.10,2013-07-01 02:31:00,
2013-06-30 21:46:00,68.8,56.0,29.98,NE,46,2.0,7.0,63,0.00,,,0.00,weatherlink.com 1.10,2013-07-01 02:46:00,
2013-06-30 22:01:00,68.1,55.0,29.98,NE,46,2.0,5.0,64,0.00,,,0.00,weatherlink.com 1.10,2013-07-01 03:01:00,
2013-06-30 22:16:00,68.0,54.0,29.98,NE,39,1.0,6.0,62,0.00,,,0.00,weatherlink.com 1.10,2013-07-01 03:16:00,
2013-06-30 22:31:00,67.1,57.0,29.98,ENE,70,1.0,7.0,69,0.00,,,0.00,weatherlink.com 1.10,2013-07-01 03:31:00,
2013-06-30 22:46:00,66.2,57.0,29.98,East,91,1.0,2.0,71,0.00,,,0.00,weatherlink.com 1.10,2013-07-01 03:46:00,
2013-06-30 23:01:00,65.3,56.0,29.98,East,94,0.0,1.0,73,0.00,,,0.00,weatherlink.com 1.10,2013-07-01 04:01:00,
2013-06-30 23:16:00,63.8,56.0,29.98,East,94,0.0,0.0,76,0.00,,,0.00,weatherlink.com 1.10,2013-07-01 04:16:00,
2013-06-30 23:31:00,62.9,55.0,29.99,East,94,0.0,0.0,76,0.00,,,0.00,weatherlink.com 1.10,2013-07-01 04:31:00,
2013-06-30 23:46:00,61.8,56.0,29.99,East,94,0.0,0.0,80,0.00,,,0.00,weatherlink.com 1.10,2013-07-01 04:46:00,